Location: Spring Creek
(38.2870°N, 100.2160°W)
Time: 23:54:27
(UTC+00:00)

Cosmos 1777 Rocket - Pass Details

Date: 08 May 2021
Orbit: 758 x 776 km, 74.0° (Epoch: 21 June)

Event Time Altitude Azimuth Distance (km) Brightness Sun altitude
Exits shadow 04:17:03 80° 175° (S) 774 3.8 -25.5°
Maximum altitude 04:17:20 86° 107° (ESE) 765 3.8 -25.6°
Drops below altitude 10° 04:22:32 10° 19° (NNE) 2,293 6.9 -26.2°
Sets 04:24:55 0° 19° (NNE) 3,222 7.7 -26.5°
